Location: Sungai Laei
(2.6000°N, 113.7167°E)
Time: 10:58:21
(UTC+00:00)

MOS 1-B Rocket - Pass Details

Date: 22 May 2022
Orbit: 891 x 1604 km, 99.0° (Epoch: 06 July)

Event Time Altitude Azimuth Distance (km) Brightness Sun altitude
Enters shadow 20:04:46 - 166° (SSE) 3,985 7.1 -30.7°
Exits shadow 20:11:03 34° 164° (SSE) 1,607 5.0 -29.3°
Maximum altitude 20:13:58 86° 77° (ENE) 981 3.9 -28.7°
Drops below altitude 10° 20:19:42 10° 349° (NNW) 2,595 6.4 -27.4°
Sets 20:22:00 0° 348° (NNW) 3,506 7.1 -26.8°
